LKPR Weather Reports


Display with metric or nautical units.
time (UTC)temp
F
wind
direction
speed
MPH
gust
MPH
rain 1hr
in
rain 24hr
in
rain mn
in
humidity
%
barometer
mb
20240221073202 43 230 14.0 0.0 0.00 0.00 0.00 81 1021.0
20240221071833 43 240 12.0 0.0 0.00 0.00 0.00 81
20240221070203 43 230 13.0 0.0 0.00 0.00 0.00 81 1021.0
20240221063202 43 240 12.0 0.0 0.00 0.00 0.00 81 1021.0
20240221061833 43 240 14.0 0.0 0.00 0.00 0.00 81
20240221060202 41 240 13.0 0.0 0.00 0.00 0.00 86 1021.0
20240221053203 41 220 13.0 0.0 0.00 0.00 0.00 86 1021.0
20240221051816 41 230 14.0 0.0 0.00 0.00 0.00 86
20240221050202 41 220 12.0 0.0 0.00 0.00 0.00 86 1021.0
20240221043200 41 220 13.0 0.0 0.00 0.00 0.00 80 1021.0
20240221041830 41 230 12.0 0.0 0.00 0.00 0.00 86
20240221040200 41 220 12.0 0.0 0.00 0.00 0.00 86 1022.0
20240221033201 41 220 12.0 0.0 0.00 0.00 0.00 86 1022.0
20240221031743 43 230 14.0 0.0 0.00 0.00 0.00 81
20240221030200 43 220 12.0 0.0 0.00 0.00 0.00 75 1022.0
20240221023200 41 210 12.0 0.0 0.00 0.00 0.00 80 1022.0
20240221021831 41 220 12.0 0.0 0.00 0.00 0.00 86
20240221020201 41 220 12.0 0.0 0.00 0.00 0.00 80 1023.0
20240221013201 41 210 13.0 0.0 0.00 0.00 0.00 80 1023.0
20240221011831 41 220 12.0 0.0 0.00 0.00 0.00 86
20240221010201 41 230 13.0 0.0 0.00 0.00 0.00 80 1023.0
20240221003200 43 230 10.0 0.0 0.00 0.00 0.00 75 1024.0
20240221001831 43 240 12.0 0.0 0.00 0.00 0.00 75
20240221000203 43 230 12.0 0.0 0.00 0.00 0.00 75 1024.0
20240220234555 43 240 14.0 0.0 0.00 0.00 0.00 75 1024.0
20240220234300 43 240 12.0 0.0 0.00 0.00 0.00 75
20240220234046 43 240 14.0 0.0 0.00 0.00 0.00 75 1024.0
20240220233943 43 240 14.0 0.0 0.00 0.00 0.00 75 1025.0
20240220233604 43 240 12.0 0.0 0.00 0.00 0.00 75 1025.0
20240220220201 43 240 13.0 0.0 0.00 0.00 0.00 75 1025.0
20240220213202 43 240 13.0 0.0 0.00 0.00 0.00 75 1025.0
20240220211816 43 250 14.0 0.0 0.00 0.00 0.00 75
20240220210820 43 240 13.0 0.0 0.00 0.00 0.00 75 1025.0
20240220205815 43 240 12.0 0.0 0.00 0.00 0.00 75 1025.0
20240220201832 43 250 12.0 0.0 0.00 0.00 0.00 75
20240220200202 43 240 10.0 0.0 0.00 0.00 0.00 75 1025.0
20240220193201 43 240 13.0 0.0 0.00 0.00 0.00 75 1025.0
20240220191832 43 250 12.0 0.0 0.00 0.00 0.00 75
20240220190201 43 240 12.0 0.0 0.00 0.00 0.00 75 1025.0
20240220183201 43 240 9.0 0.0 0.00 0.00 0.00 75 1025.0
20240220181832 43 250 7.0 0.0 0.00 0.00 0.00 75
20240220180202 43 230 9.0 0.0 0.00 0.00 0.00 75 1025.0
20240220173201 43 260 8.0 0.0 0.00 0.00 0.00 75 1025.0
20240220171832 45 270 9.0 0.0 0.00 0.00 0.00 65
20240220170201 45 270 8.0 0.0 0.00 0.00 0.00 65 1025.0
20240220163201 45 280 5.0 0.0 0.00 0.00 0.00 70 1025.0
20240220161816 45 300 9.0 0.0 0.00 0.00 0.00 70
20240220160202 45 320 6.0 0.0 0.00 0.00 0.00 70 1024.0
20240220153201 45 290 7.0 0.0 0.00 0.00 0.00 75 1024.0
20240220151832 46 280 9.0 0.0 0.00 0.00 0.00 65
20240220150202 46 280 10.0 0.0 0.00 0.00 0.00 65 1024.0
20240220143202 45 280 9.0 0.0 0.00 0.00 0.00 70 1024.0
20240220141831 46 300 12.0 0.0 0.00 0.00 0.00 65
20240220140201 46 290 13.0 0.0 0.00 0.00 0.00 65 1024.0
20240220133202 46 290 14.0 0.0 0.00 0.00 0.00 65 1024.0
20240220131831 46 280 14.0 0.0 0.00 0.00 0.00 70
20240220130803 46 280 16.0 0.0 0.00 0.00 0.00 70 1024.0
20240220125923 45 280 12.0 0.0 0.00 0.00 0.00 75 1024.0
20240220123831 45 280 12.0 0.0 0.00 0.00 0.00 75 1024.0
20240220121920 46 300 14.0 0.0 0.00 0.00 0.00 65
20240220120202 46 290 15.0 0.0 0.00 0.00 0.00 65 1024.0
20240220113203 46 280 14.0 0.0 0.00 0.00 0.00 70 1024.0
20240220111800 45 290 12.0 0.0 0.00 0.00 0.00 81
20240220110201 45 280 14.0 0.0 0.00 0.00 0.00 81 1024.0
20240220103203 46 290 13.0 0.0 0.00 0.00 0.00 70 1024.0
20240220101816 46 310 16.0 0.0 0.00 0.00 0.00 70
20240220100202 46 290 15.0 0.0 0.00 0.00 0.00 70 1024.0
20240220093202 45 310 13.0 0.0 0.00 0.00 0.00 81 1024.0
20240220091801 46 280 12.0 0.0 0.00 0.00 0.00 81
20240220091703 46 310 14.0 0.0 0.00 0.00 0.00 75 1024.0
20240220090203 45 280 13.0 0.0 0.00 0.00 0.00 87 1024.0
20240220083202 45 280 12.0 0.0 0.00 0.00 0.00 87 1024.0
20240220081818 45 270 9.0 0.0 0.00 0.00 0.00 87
20240220080203 45 250 9.0 0.0 0.00 0.00 0.00 87 1023.0